Stations météo

Publicité
Toulouse/Blagnac, France (7630): Température de l'air & dewpoint: 10.01.2018 20:00:00 - 16.01.2018 20:00:00 (CET)Toulouse/Blagnac, France (7630): Température de l'air 5cm: 10.01.2018 20:00:00 - 16.01.2018 20:00:00 (CET)Toulouse/Blagnac, France (7630): Température de l'air -20cm & Température de l'air -100cm: 10.01.2018 20:00:00 - 16.01.2018 20:00:00 (CET)Toulouse/Blagnac, France (7630): Vitesse du vent & gusts: 10.01.2018 20:00:00 - 16.01.2018 20:00:00 (CET)Toulouse/Blagnac, France (7630): Direction du vent: 10.01.2018 20:00:00 - 16.01.2018 20:00:00 (CET)Toulouse/Blagnac, France (7630): reduced air pressure: 10.01.2018 20:00:00 - 16.01.2018 20:00:00 (CET)Toulouse/Blagnac, France (7630): visibility: 10.01.2018 20:00:00 - 16.01.2018 20:00:00 (CET)Toulouse/Blagnac, France (7630): Ensoleillement: 10.01.2018 20:00:00 - 16.01.2018 20:00:00 (CET)Toulouse/Blagnac, France (7630): Quantités de précipitations: 10.01.2018 20:00:00 - 16.01.2018 20:00:00 (CET)
Date & Time tt [°C] td [°C] tt 5cm [°C] tt -20cm [°C] tt -100cm [°C] ff [km/h] ff [knt] fx [km/h] fx [knt] dd ppp [hPa] vv [km] sd [min] rr [mm]
16.01.2018 20:00:00 12,2 10,1 11,0 9,2 10,3 31 17 54 29 W 1018,5 10 0 0,2
16.01.2018 19:00:00 12,4 9,8 11,2 9,2 10,4 34 18 53 29 W 1018,5 10 0 0,0
16.01.2018 18:00:00 12,7 9,7 11,3 9,1 10,4 36 19 58 32 W 1018,2 38 0 0,0
16.01.2018 17:00:00 12,3 10,5 11,4 9,0 10,4 29 16 51 27 W 1018,6 12 0 0,2
16.01.2018 16:00:00 11,9 10,8 11,4 8,9 10,4 22 12 51 27 W 1019,3 2,9 0 0,8
16.01.2018 15:00:00 12,5 10,2 11,7 8,8 10,4 31 17 52 28 WSW 1019,3 14 0 0,0
16.01.2018 14:00:00 12,4 10,6 11,9 8,7 10,4 24 13 46 25 W 1020,2 57 1 0,0
16.01.2018 13:00:00 12,3 11,0 11,1 8,6 10,4 22 12 48 26 WSW 1021,0 45 0 0,4
16.01.2018 12:00:00 11,7 10,3 10,9 8,6 10,4 34 18 53 29 W 1021,7 7 0 0,4
16.01.2018 11:00:00 11,2 10,3 10,7 8,5 10,4 18 10 49 27 W 1021,6 3,8 0 2,0
16.01.2018 10:00:00 11,7 9,6 10,7 8,4 10,4 33 18 60 32 W 1021,2 8 0 0,2
16.01.2018 09:00:00 11,5 9,6 10,4 8,4 10,4 27 15 46 25 W 1020,1 13 0 0,0
16.01.2018 08:00:00 11,5 9,2 10,3 8,3 10,4 27 14 49 26 WSW 1019,3 16 0 0,0
16.01.2018 07:00:00 11,4 9,3 10,3 8,2 10,4 29 15 45 25 W 1018,8 19 0 0,0
16.01.2018 06:00:00 11,5 9,4 10,3 8,1 10,4 28 15 53 29 W 1018,4 18 0 0,2
16.01.2018 05:00:00 12,1 8,8 10,9 8,1 10,4 27 15 50 27 W 1018,3 60 0 0,0
16.01.2018 04:00:00 12,0 8,7 9,9 8,0 10,4 29 16 42 23 W 1018,5 57 0 0,0
16.01.2018 03:00:00 11,4 8,6 10,0 8,0 10,4 29 16 50 27 W 1018,9 16 0 0,0
16.01.2018 02:00:00 11,6 7,3 10,6 8,0 10,4 24 13 43 23 WSW 1019,1 60 0 0,0
16.01.2018 01:00:00 11,3 6,0 10,2 8,0 10,4 26 14 43 23 WSW 1019,6 60 0 0,0
16.01.2018 00:00:00 10,8 2,9 8,8 8,0 10,5 20 11 51 27 WSW 1020,0 60 0 0,0
15.01.2018 23:00:00 10,7 2,8 9,5 8,0 10,5 22 12 44 24 WSW 1020,1 40 0 0,0
15.01.2018 22:00:00 10,8 2,4 8,9 8,0 10,4 21 11 37 20 WSW 1019,7 60 0 0,0
15.01.2018 21:00:00 10,6 2,4 8,3 8,0 10,4 15 8 53 29 SW 1019,6 60 0 0,0
15.01.2018 20:00:00 9,3 4,7 8,4 7,9 10,4 10 5 18 10 S 1019,7 25 0 0,0
15.01.2018 19:00:00 9,3 4,9 8,4 7,9 10,5 10 6 16 9 S 1019,9 35 0 0,0
15.01.2018 18:00:00 9,5 5,1 8,4 7,9 10,5 8 4 12 7 S 1020,5 48 0 0,0
15.01.2018 17:00:00 10,2 4,8 9,8 7,8 10,5 8 4 18 10 WSW 1021,1 10 0 0,0
15.01.2018 16:00:00 10,5 4,6 10,8 7,7 10,5 9 5 23 12 SW 1021,1 60 0 0,0
15.01.2018 15:00:00 10,6 4,7 11,4 7,5 10,5 16 9 25 14 W 1021,5 10 0 0,0
15.01.2018 14:00:00 10,4 4,3 11,4 7,4 10,5 17 9 24 13 WSW 1022,0 57 6 0,0
15.01.2018 13:00:00 10,4 4,1 11,5 7,3 10,5 16 9 28 15 WSW 1022,6 53 22 0,0
15.01.2018 12:00:00 9,8 4,4 10,0 7,2 10,5 10 5 24 13 SW 1024,0 52 31 0,0
15.01.2018 11:00:00 8,8 4,0 8,3 7,2 10,5 15 8 21 11 SSW 1024,8 28 60 0,0
15.01.2018 10:00:00 5,5 3,2 3,3 7,3 10,5 12 7 19 10 S 1024,8 21 31 0,0
15.01.2018 09:00:00 3,9 2,9 0,2 7,4 10,5 11 6 15 8 S 1024,6 21 4 0,0
15.01.2018 08:00:00 3,3 2,0 0,0 7,5 10,6 8 4 12 6 S 1024,0 10 0 0,0
15.01.2018 07:00:00 4,6 2,6 2,5 7,5 10,6 7 4 12 6 S 1023,3 40 0 0,0
15.01.2018 06:00:00 5,2 3,2 3,8 7,5 10,6 8 4 10 6 S 1023,1 39 0 0,0
15.01.2018 05:00:00 6,0 4,2 5,0 7,5 10,6 9 5 14 7 S 1022,8 40 0 0,0
15.01.2018 04:00:00 5,9 4,4 4,6 7,5 10,6 8 4 11 6 S 1023,3 22 0 0,0
15.01.2018 03:00:00 5,4 3,9 3,1 7,5 10,6 5 3 8 5 S 1023,2 10 0 0,0
15.01.2018 02:00:00 6,2 4,5 5,6 7,5 10,6 5 3 7 4 S 1023,1 10 0 0,0
15.01.2018 01:00:00 6,4 4,4 5,5 7,6 10,6 2 1 6 3 SSW 1023,6 10 0 0,0
15.01.2018 00:00:00 6,2 4,5 5,6 7,6 10,6 5 3 8 4 SSE 1022,8 9 0 0,0
14.01.2018 23:00:00 6,1 4,4 4,1 7,6 10,6 5 3 12 7 - 1022,2 7 0 0,0
14.01.2018 22:00:00 5,6 4,2 1,5 7,7 10,6 3 2 9 5 SE 1021,6 4,6 0 0,0
14.01.2018 21:00:00 5,6 3,6 1,9 7,7 10,6 5 3 7 4 S 1020,9 9 0 0,0
14.01.2018 20:00:00 6,8 3,9 4,8 7,7 10,6 3 2 11 6 S 1020,4 19 0 0,0
14.01.2018 19:00:00 6,7 3,3 4,6 7,7 10,6 8 4 11 6 S 1019,4 24 0 0,0
14.01.2018 18:00:00 6,7 3,1 3,6 7,7 10,6 4 2 8 4 SE 1019,0 60 0 0,0
14.01.2018 17:00:00 7,7 3,2 6,9 7,6 10,6 5 3 10 5 ESE 1018,1 60 32 0,0
14.01.2018 16:00:00 8,2 3,8 8,6 7,5 10,6 5 3 9 5 SSE 1017,5 56 7 0,0
14.01.2018 15:00:00 7,6 3,3 8,6 7,4 10,6 8 4 13 7 S 1017,5 60 0 0,0
14.01.2018 14:00:00 7,9 3,2 8,7 7,4 10,7 7 4 19 11 SW 1017,3 60 0 0,0
14.01.2018 13:00:00 7,4 3,4 7,6 7,3 10,7 13 7 20 11 WSW 1017,8 57 0 0,0
14.01.2018 12:00:00 7,1 3,3 7,9 7,2 10,7 11 6 17 9 W 1018,0 10 0 0,0
14.01.2018 11:00:00 7,3 3,5 7,5 7,2 10,7 10 5 16 9 NW 1017,7 31 0 0,0
14.01.2018 10:00:00 7,0 3,8 6,2 7,2 10,7 11 6 18 10 NW 1016,9 10 3 0,0
14.01.2018 09:00:00 6,4 3,9 5,1 7,2 10,7 14 8 20 11 NW 1016,3 24 0 0,0
14.01.2018 08:00:00 5,6 3,4 5,0 7,2 10,7 13 7 23 12 WNW 1015,6 17 0 0,0
14.01.2018 07:00:00 5,6 3,4 5,0 7,2 10,7 9 5 20 11 WNW 1014,9 16 0 0,0
14.01.2018 06:00:00 5,9 3,7 4,6 7,3 10,7 11 6 16 9 WSW 1014,9 16 0 0,0
14.01.2018 05:00:00 5,7 3,4 4,8 7,2 10,7 7 4 14 8 WSW 1014,9 17 0 0,0
14.01.2018 04:00:00 5,4 3,1 4,4 7,3 10,7 3 1 8 4 S 1014,6 16 0 0,0
14.01.2018 03:00:00 5,7 2,9 5,0 7,3 10,7 4 2 14 8 W 1014,5 22 0 0,0
14.01.2018 02:00:00 5,4 2,9 4,5 7,3 10,8 4 2 13 7 WNW 1014,5 10 0 0,0
14.01.2018 01:00:00 4,9 2,8 4,1 7,3 10,7 8 4 11 6 NW 1014,7 15 0 0,0
14.01.2018 00:00:00 5,5 2,8 4,8 7,4 10,8 5 3 14 8 NNW 1015,1 15 0 0,0
13.01.2018 23:00:00 5,9 2,9 4,3 7,4 10,7 6 3 12 6 NNE 1015,3 17 0 0,0
13.01.2018 22:00:00 5,4 2,6 4,0 7,4 10,8 4 2 16 8 NW 1015,4 17 0 0,0
13.01.2018 21:00:00 5,6 3,3 5,1 7,4 10,8 6 4 18 10 NW 1015,6 13 0 0,0
13.01.2018 20:00:00 6,3 3,8 5,7 7,4 10,8 9 5 16 8 NNW 1015,0 13 0 0,0
13.01.2018 19:00:00 7,5 3,2 6,2 7,3 10,8 6 3 24 13 NNW 1014,9 17 0 0,0
13.01.2018 18:00:00 8,5 4,3 7,0 7,3 10,8 13 7 22 12 ESE 1014,4 41 0 0,0
13.01.2018 17:00:00 8,7 3,9 8,4 7,2 10,8 16 8 28 15 SSE 1014,9 45 0 0,0
13.01.2018 16:00:00 8,6 3,6 8,2 7,1 10,8 19 10 35 19 SE 1014,6 40 0 0,0
13.01.2018 15:00:00 8,4 3,6 8,5 7,0 10,8 20 11 32 18 SE 1014,8 31 0 0,0
13.01.2018 14:00:00 8,1 3,4 8,3 7,0 10,8 20 11 41 22 SE 1015,1 31 0 0,0
13.01.2018 13:00:00 8,0 3,3 7,9 6,9 10,8 25 13 41 22 SE 1016,1 34 0 0,0
13.01.2018 12:00:00 7,2 3,2 5,4 6,9 10,8 24 13 41 22 ESE 1016,9 10 6 0,0
13.01.2018 11:00:00 2,3 2,0 1,6 6,9 10,8 5 3 10 5 - 1017,8 10 35 0,0
13.01.2018 10:00:00 0,3 0,0 -0,4 6,9 10,8 6 3 13 7 NW 1017,9 1,9 26 0,0
13.01.2018 09:00:00 -0,8 -1,1 -0,7 7,0 10,8 2 1 14 8 NE 1018,4 0,2 10 0,0
13.01.2018 08:00:00 -0,4 -0,7 -0,5 7,1 10,8 3 2 6 4 NNW 1018,7 0,1 0 0,0
13.01.2018 07:00:00 -0,5 -0,8 -0,9 7,2 10,8 0 0 7 4 N 1019,0 0,1 0 0,0
13.01.2018 06:00:00 -0,1 -0,4 -2,7 7,3 10,8 2 1 7 4 NW 1019,5 0,2 0 0,0
13.01.2018 05:00:00 -0,1 -0,4 -3,1 7,4 10,8 2 1 6 3 - 1020,1 0,3 0 0,0
13.01.2018 04:00:00 -0,4 -0,8 -1,9 7,6 10,9 0 0 7 4 N 1020,6 0,1 0 0,0
13.01.2018 03:00:00 0,6 0,0 -2,9 7,7 10,9 0 0 10 6 N 1021,5 0,1 0 0,0
13.01.2018 02:00:00 1,9 1,5 -3,1 7,9 10,9 4 2 8 4 E 1022,4 1,2 0 0,0
13.01.2018 01:00:00 1,4 0,8 -3,0 8,0 10,9 6 3 8 4 SSE 1023,3 0,7 0 0,0
13.01.2018 00:00:00 2,3 1,6 -2,3 8,1 10,8 0 0 5 3 N 1023,9 0,1 0 0,0
12.01.2018 23:00:00 3,1 2,5 -1,4 8,3 10,9 4 2 8 4 SSE 1024,4 2,1 0 0,0
12.01.2018 22:00:00 2,3 1,3 -1,4 8,4 10,9 5 3 8 5 S 1024,9 5 0 0,0
12.01.2018 21:00:00 3,3 1,8 -0,5 8,5 10,9 5 3 8 4 SSW 1025,1 10 0 0,0
12.01.2018 20:00:00 4,7 2,9 0,9 8,6 10,9 0 0 6 4 N 1024,9 8 0 0,0
12.01.2018 19:00:00 5,2 3,4 2,1 8,6 10,9 4 2 9 5 NNE 1025,0 18 0 0,0
12.01.2018 18:00:00 5,7 3,2 4,3 8,6 10,9 5 3 18 10 NNE 1025,0 34 1 0,0
12.01.2018 17:00:00 6,8 4,1 6,9 8,5 10,9 11 6 17 9 N 1024,9 10 4 0,0
12.01.2018 16:00:00 7,2 4,5 8,1 8,4 10,9 12 6 20 11 N 1024,8 20 12 0,0
12.01.2018 15:00:00 7,9 4,8 9,5 8,3 10,9 13 7 23 12 N 1024,3 39 26 0,0
12.01.2018 14:00:00 8,8 5,0 10,2 8,2 10,9 11 6 26 14 NW 1024,7 48 45 0,0
12.01.2018 13:00:00 8,0 5,1 7,8 8,1 10,9 18 10 24 13 W 1025,1 10 12 0,0
12.01.2018 12:00:00 6,4 4,6 6,2 8,1 10,9 8 4 17 9 W 1025,8 10 0 0,0
12.01.2018 11:00:00 6,0 4,5 6,2 8,1 10,9 13 7 20 11 NW 1026,4 17 0 0,0
12.01.2018 10:00:00 5,7 4,8 5,4 8,1 10,9 14 8 22 12 W 1026,0 11 0 0,0
12.01.2018 09:00:00 5,4 4,2 5,3 8,1 10,9 13 7 20 11 W 1025,7 10 0 0,0
12.01.2018 08:00:00 5,5 4,5 5,4 8,1 10,9 13 7 23 13 NW 1025,7 10 0 0,0
12.01.2018 07:00:00 5,4 4,4 5,0 8,2 10,9 16 9 25 13 W 1025,1 21 0 0,0
12.01.2018 06:00:00 5,2 4,2 5,0 8,2 10,9 9 5 16 9 W 1025,1 18 0 0,0
12.01.2018 05:00:00 5,3 4,3 5,0 8,2 10,9 13 7 19 10 W 1024,9 15 0 0,0
12.01.2018 04:00:00 5,6 4,2 5,5 8,2 10,9 16 9 21 12 NW 1025,2 25 0 0,0
12.01.2018 03:00:00 5,6 3,9 5,5 8,3 10,9 9 5 22 12 WNW 1024,7 29 0 0,0
12.01.2018 02:00:00 5,7 3,9 5,5 8,3 11,0 15 8 21 11 WNW 1024,6 42 0 0,0
12.01.2018 01:00:00 5,7 3,7 5,3 8,3 10,9 10 5 19 10 W 1024,4 43 0 0,0
12.01.2018 00:00:00 5,7 3,7 5,4 8,4 11,0 12 6 18 10 W 1024,3 58 0 0,0
11.01.2018 23:00:00 5,6 3,4 4,4 8,5 11,0 4 2 23 12 NW 1024,1 60 0 0,0
11.01.2018 22:00:00 5,4 3,2 4,4 8,5 11,0 13 7 23 13 W 1023,2 59 0 0,0
11.01.2018 21:00:00 6,1 3,6 5,2 8,6 11,0 19 10 27 15 W 1022,4 58 0 0,0
11.01.2018 20:00:00 6,9 4,2 6,5 8,6 10,9 16 8 30 16 W 1021,7 56 0 0,0
11.01.2018 19:00:00 7,1 4,1 6,7 8,6 10,9 17 9 25 13 W 1020,9 58 0 0,0
11.01.2018 18:00:00 7,2 4,2 6,2 8,6 10,9 14 8 27 15 W 1020,4 53 1 0,0
11.01.2018 17:00:00 7,0 3,8 6,5 8,6 11,0 17 9 29 16 W 1019,5 60 1 0,0
11.01.2018 16:00:00 7,8 3,5 7,6 8,5 11,0 18 10 29 16 W 1018,8 53 19 0,0
11.01.2018 15:00:00 7,7 4,8 7,0 8,5 11,0 11 6 30 16 NW 1018,5 59 0 0,2
11.01.2018 14:00:00 8,1 3,2 8,8 8,4 11,0 22 12 35 19 W 1018,4 43 1 0,0
11.01.2018 13:00:00 8,2 3,6 7,6 8,4 11,0 24 13 41 22 W 1018,2 45 11 0,0
11.01.2018 12:00:00 6,9 3,3 7,1 8,4 11,0 24 13 36 20 W 1018,5 10 0 0,0
11.01.2018 11:00:00 6,7 3,3 6,3 8,5 11,0 25 14 37 20 W 1018,4 60 0 0,0
11.01.2018 10:00:00 6,3 2,7 5,6 8,5 11,0 24 13 40 21 W 1017,6 57 12 0,0
11.01.2018 09:00:00 6,0 2,8 5,1 8,6 11,0 23 12 46 25 W 1016,9 60 0 0,0
11.01.2018 08:00:00 6,1 2,4 4,3 8,7 11,0 23 13 34 19 W 1016,4 60 0 0,0
11.01.2018 07:00:00 5,4 2,4 4,3 8,8 11,0 15 8 33 18 WSW 1015,6 60 0 0,0
11.01.2018 06:00:00 6,5 2,4 5,7 8,8 11,0 22 12 36 19 W 1015,1 60 0 0,0
11.01.2018 05:00:00 6,4 2,8 5,7 8,9 11,0 25 14 42 23 W 1015,1 60 0 0,0
11.01.2018 04:00:00 6,9 3,1 5,7 8,9 11,0 25 14 43 23 W 1015,3 60 0 0,0
11.01.2018 03:00:00 6,8 3,9 5,9 9,0 11,0 26 14 44 24 W 1015,3 10 0 0,0
11.01.2018 02:00:00 7,2 4,0 6,5 9,0 11,0 24 13 46 25 W 1015,0 60 0 0,0
11.01.2018 01:00:00 7,0 4,3 6,4 9,1 11,0 18 10 34 19 WSW 1015,1 10 0 0,0
11.01.2018 00:00:00 7,3 4,6 6,4 9,1 11,0 24 13 53 28 W 1014,8 60 0 0,0
10.01.2018 23:00:00 7,8 6,1 7,0 9,2 11,0 22 12 41 22 W 1014,3 14 0 0,4
10.01.2018 22:00:00 8,3 5,8 6,8 9,2 11,0 29 16 48 26 W 1013,8 10 0 2,0
10.01.2018 21:00:00 8,3 5,6 5,6 9,3 11,0 5 3 6 4 S 1012,4 11 0 0,0
10.01.2018 20:00:00 8,4 5,5 3,5 9,4 11,0 0 0 6 4 N 1012,8 26 0 0,0

tt = Température de l'air
td = dewpoint
tt 5cm = Température de l'air 5cm
tt -20cm = Température de l'air -20cm
tt -100cm = Température de l'air -100cm
ff = Vitesse du vent
fx = gusts
dd = Direction du vent
ppp = reduced air pressure
vv = visibility
sd = Ensoleillement
rr = Quantités de précipitations

stations d'obs. à proximité